map of SVX home
Great Circle Mapper logo
SVX - Airport
Location
City:  Ekaterinburg, Sverdlovsk, Russian Federation (Russia)
Near (Alt.):Yekaterinburg
Name:Koltsovo
ICAO / IATA:USSS / SVX

Details
Type:Airport (Aerodrome, Airfield)
Use:Public/Civil
Latitude:5644'35"N (56.743108)
Longitude:6048'10"E (60.802728)
Datum:WGS 1984
Elevation:764 ft (233 m)
Runways:2
Longest:9925 × 174 ft (3025 × 53 m), paved

Time
Time Zone:UTC+5 (DST+6)

Weather
METAR:USSS 011330Z 20002MPS 7000 -SHRA BKN020CB OVC067 02/01 Q1012 7629//40 NOSIG RMK QFE739
TAF:USSS 011105Z 0112/0212 18004MPS 5000 -SHRA BKN007 SCT020CB
BECMG 0115/0117 2000 SHRASN BR

Related Locations
Nearby:
Farthest:AAXX: 10682 mi / 17191 km
Rothera Point, Adelaide Island, AQ

Find:

   beyond  
but within

Other Information
Maps:
NOTAMs:
Links:
Sources:

  
flag of Russian Federation (Russia)
flag of Ekaterinburg
  

Sectional Chart

Flight Planning
at skyvector.com

Satellite Image

Google Maps Satellite View

 

Copyright © 2004-2014 Karl L. Swartz. All rights reserved.
The Great Circle Mapper name and logo are trademarks of the Great Circle Mapper.
All other trademarks mentioned herein belong to their respective owners.
Please see credits for attibutions and further copyright information.

  Follow gcmap on Facebook Follow gcmap on Twitter

hCard Microformat

Geo Microformat